Regional Weather Roundup
Issued by NWS

Home | Current Version | Previous Version | Graphics & Text | Print | Product List | Glossary On
Versions: 1 2 3 4 5 6 7 8 9 10 11 12 13 14 15 16 17 18 19 20 21 22 23 24 25 26 27 28 29 30 31 32 33 34 35 36 37 38 39 40 41 42 43 44 45 46 47 48 49 50
000
ASUS43 KTOP 190308
RWRKS

WEATHER ROUNDUP FOR KANSAS
NATIONAL WEATHER SERVICE GOODLAND KS
1000 PM CDT SAT APR 18 2015

NOTE:  "FAIR" INDICATES FEW OR NO CLOUDS BELOW 12,000 FEET WITH NO
SIGNIFICANT WEATHER AND/OR OBSTRUCTIONS TO VISIBILITY.

KSZ001>006-013>018-027>032-041>047-190400-
NORTHWEST KANSAS

CITY           SKY/WX    TMP DP  RH WIND       PRES   REMARKS
GOODLAND       MOCLDY    46  43  89 NW9       29.81S
HAYS           CLOUDY    52  43  71 CALM      29.80F
HILL CITY      CLOUDY    53  47  79 E6        29.81R
RUSSELL        CLOUDY    53  48  83 NW8       29.78R
$$

KSZ061>065-074>080-084>089-190400-
SOUTHWEST KANSAS

CITY           SKY/WX    TMP DP  RH WIND       PRES   REMARKS
DODGE CITY     CLOUDY    54  39  57 N6        29.78R
ELKHART          N/A    N/A N/A N/A MISG        N/A
GARDEN CITY    PTCLDY    46  39  76 W8        29.78R
GREAT BEND     CLOUDY    54  45  71 SW22G33   29.82R
LIBERAL        CLEAR     48  34  57 W9        29.81R
PRATT          RAIN      55  43  62 E13       29.74F
$$

KSZ066>073-081>083-090>101-190400-
SOUTHEAST KANSAS

CITY           SKY/WX    TMP DP  RH WIND       PRES   REMARKS
CHANUTE        PTCLDY    62  58  86 E9        29.80F
COFFEYVILLE    MOCLDY    63  60  90 E7        29.78S
HUTCHINSON     CLOUDY    55  50  83 E15       29.77R
MEDICINE LODGE   N/A     57  49  74 N6        29.77R
NEWTON         CLOUDY    54  46  76 NE8       29.83F THUNDER
PARSONS        PTCLDY    63  60  90 VRB3      29.80S
WICHITA INTL   TSTM      57  53  86 NE15      29.78F
WICHITA JABRA  RAIN      54  54 100 N10G21    29.81R
WICHITA MCCONL TSTM      55  52  91 N13       29.80F
WINFIELD       CLOUDY    57  50  77 NE15G25   29.81R
$$

KSZ007>012-019>026-033>040-048>060-102>105-190400-
NORTHEAST KANSAS

CITY           SKY/WX    TMP DP  RH WIND       PRES   REMARKS
CONCORDIA      LGT RAIN  53  52  96 E6        29.83F
EMPORIA        LGT RAIN  54  51  90 W13       29.86R FOG
LAWRENCE       PTCLDY    57  56  96 E5        29.83S
MANHATTAN      RAIN      55  54  96 VRB3      29.86S FOG
MARYSVILLE     CLOUDY    55  54  94 SW9       29.85R
OLATHE IND     MOCLDY    59  57  93 E3        29.84S
OLATHE EXE     MOCLDY    60  58  92 SE3       29.83S
SALINA         LGT RAIN  56  49  77 E16       29.76F
TOPEKA BILLARD PTCLDY    60  57  89 CALM      29.83S
TOPEKA FORBES  PTCLDY    60  57  89 S5        29.82R
$$



USA.gov is the U.S. government's official web portal to all federal, state and local government web resources and services.